Home   Weather   Copenhagen   Past weeks
Flag for Denmark

Past Weather in Copenhagen, Denmark — Yesterday and Last 2 Weeks

Now
43 °F

Fog.


Feels Like: 36 °F
Forecast: 47 / 43 °F
Wind: 14 mph from Southwest

Location: Koebenhavn-Kastrup Airport

Current Time: Mar 21, 2019 at 3:00:40 am

Latest Report: Mar 21, 2019 at 2:20 am


Visibility: 2 mi

Pressure: 30.39 "Hg

Humidity: 100%

Dew Point: 43 °F

Location of CopenhagenLocation

Past Weather in Copenhagen — Graph

°F

Copenhagen Temperature Yesterday

Maximum temperature yesterday: 48 °F (at 4:20 pm)
Minimum temperature yesterday: 34 °F (at 1:20 am)
Average temperature yesterday: 42 °F

High & Low Weather Summary for the Past Weeks

 TemperatureHumidityPressure
High48 °F (Mar 7, 2:50 pm)100% (Mar 6, 2:49 am)30.42 "Hg (Mar 6, 2:49 am)
Low27 °F (Mar 11, 3:20 am)31% (Mar 11, 1:50 pm)28.97 "Hg (Mar 15, 5:50 pm)
Average41 °F82%29.56 "Hg
* Reported Mar 6 1:50 am — Mar 21 1:20 am, Copenhagen. Weather by CustomWeather, © 2019

Note: Actual official high and low records may vary slightly from our data, if they occured in-between our weather recording intervals... More about our weather records

Advertising

Copenhagen Weather History for the Previous 24 Hours

Scroll right to see more
 ConditionsComfort  
Time TempWeatherWind HumidityBarometerVisibility
1:20 am
Thu, Mar 21
43 °FFog.9 mph100%30.39 "Hg2 mi
12:50 am43 °FPassing clouds.10 mph100%30.39 "Hg3 mi
12:20 am43 °FPassing clouds.9 mph100%30.42 "Hg4 mi
11:50 pm
Wed, Mar 20
43 °FPassing clouds.14 mph100%30.39 "Hg4 mi
11:20 pm43 °FPassing clouds.10 mph100%30.39 "Hg5 mi
10:50 pm43 °FPassing clouds.9 mph93%30.39 "Hg4 mi
10:20 pm43 °FQuite cool.7 mph93%30.39 "HgN/A
9:50 pm43 °FQuite cool.7 mph93%30.39 "HgN/A
9:20 pm43 °FQuite cool.5 mph100%30.39 "HgN/A
8:50 pm45 °FQuite cool.7 mph87%30.39 "HgN/A
8:20 pm45 °FQuite cool.9 mph93%30.36 "HgN/A
7:50 pm46 °FPassing clouds.9 mph93%30.36 "HgN/A
7:20 pm46 °FPassing clouds.8 mph87%30.36 "HgN/A
6:50 pm46 °FPassing clouds.8 mph93%30.36 "HgN/A
6:20 pm46 °FScattered clouds.8 mph87%30.33 "HgN/A
5:50 pm46 °FCool.8 mph87%30.33 "HgN/A
5:20 pm48 °FPartly sunny.9 mph87%30.33 "HgN/A
4:51 pm48 °FOvercast.10 mph87%30.33 "Hg6 mi
4:20 pm48 °FFog.8 mph94%30.30 "Hg3 mi
3:50 pm46 °FDrizzle. Low clouds.12 mph93%30.30 "Hg1 mi
3:20 pm46 °FFog.12 mph93%30.30 "Hg2 mi
2:50 pm46 °FLow clouds.15 mph93%30.30 "Hg4 mi
2:20 pm46 °FOvercast.16 mph93%30.30 "Hg4 mi
1:50 pm46 °FFog.13 mph93%30.30 "Hg2 mi
1:20 pm45 °FFog.14 mph93%30.30 "Hg2 mi
12:50 pm45 °FFog.17 mph93%30.30 "Hg3 mi
12:20 pm45 °FFog.17 mph93%30.30 "Hg3 mi
11:50 am45 °FFog.17 mph87%30.30 "Hg3 mi
11:20 am45 °FOvercast.17 mph87%30.30 "Hg6 mi
10:50 am45 °FSprinkles. Overcast.17 mph87%30.30 "HgN/A
10:20 am43 °FOvercast.16 mph87%30.30 "HgN/A
9:50 am43 °FSprinkles. Overcast.16 mph87%30.30 "HgN/A
9:20 am43 °FSprinkles. Overcast.14 mph87%30.30 "HgN/A
8:50 am41 °FLight rain. Overcast.14 mph87%30.30 "HgN/A
8:20 am41 °FMostly cloudy.14 mph87%30.30 "HgN/A
7:50 am41 °FOvercast.13 mph87%30.30 "HgN/A
6:50 am39 °FOvercast.12 mph87%30.30 "HgN/A
6:20 am39 °FOvercast.10 mph87%30.30 "HgN/A
5:50 am39 °FOvercast.9 mph87%30.30 "HgN/A
5:20 am37 °FMostly cloudy.10 mph93%30.30 "HgN/A
4:50 am37 °FOvercast.9 mph93%30.33 "HgN/A
4:20 am37 °FPassing clouds.8 mph87%30.33 "HgN/A
3:50 am36 °FPartly cloudy.7 mph93%30.33 "HgN/A
3:20 am36 °FPassing clouds.7 mph93%30.33 "HgN/A
Weather by CustomWeather, © 2019

See weather overview